Weather in Milovka

Russia / Republic of Bashkortostan     54°46′41″N   55°49′31″E
temp.,
°C
wind,
m/s
gust,
m/s
humid.,
%
clouds,
%
prec.,
mm/h
press.,
hPa
HPBL,
m
26 january, tue
tue2623:00−3ssw4994100 0.1 1032350
02:00−4ssw51192100 0.0 1032410
05:00−6s389599 0.0 1032288
08:00−4s4794100 0.1 1032306
11:00−5s61093100 0.1 1032329
14:00−7s5992100 0.0 1032334
17:00−6s51093100 0.0 1031362
20:00−7s51292100 0.0 1031352
27 january, wed
wed2723:00−7s51390100 0.0 1030402
02:00−7ssw41391100 0.0 1031414
05:00−7ssw51392100 0.0 1031385
08:00−5ssw51193100 0.0 1030578
11:00−3ssw51092100 0.1 1030668
14:00−2ssw61190100 0.0 1030661
17:00−2ssw6119097 0.1 1030597
20:00−6s6139285 0.0 1030369
28 january, thu
thu2823:00−6s6149293 0.0 1029385
02:00−6s61489100 0.0 1028382
05:00−7s61488100 0.0 1028388
08:00−8s6138981 0.0 1027347
11:00−8s6138689 0.0 1026378
14:00−6s61284100 0.0 1026424
17:00−7s51286100 0.0 1025359
20:00−9s4988100 0.0 1025209
29 january, fri
fri2923:00−9s4989100 0.0 1024210
02:00−9s3887100 0.0 1024181
05:00−8sse3585100 0.0 102399
08:00−9sse3483100 0.0 102165
11:00−7se3482100 0.0 102090
14:00−3se2582100 0.0 1017162
17:00−3se2375100 0.0 101524
20:00−3sse3681100 0.0 1013106
30 january, sat
sat3023:00−3s61491100 0.1 1013606
02:00−4s61394100 0.4 1014555
05:00−5s5129398 0.4 1014434
08:00−6s51193100 0.0 1015343
11:00−6s499499 0.0 1015295
14:00−3sse469495 0.1 1016350
17:00−4sse489594 0.1 1016193
20:00−7sse369696 0.0 1016111